When you browse on this site, cookies collect data to enhance your experience and personalize the content and advertising you see.
Visit our Privacy Policy to learn more. By continuing to use the site, you agree to this use of cookies and data.
  • In Schweiz
  • Länderverzeichnis
  • Für 7 Tage
  • Wassertemperatur
  • Satellitenkarten
  • Wetterkarte
  • Widgets
  • user-avatar
    Anmelden

    Stündliche Wetter Kirkuk

    Heute, 17 Dezember, Montag

    Zeit Temperatur Niederschläge Wind Luftdruck Luftfeuchtigkeit
    00:00 +14°C° 0 mm 2 m/S 737 mmHg 43%
    01:00 +14°C° 0 mm 2 m/S 737 mmHg 44%
    02:00 +13°C° 0 mm 1 m/S 737 mmHg 45%
    03:00 +14°C° 0 mm 1 m/S 736 mmHg 45%
    04:00 +13°C° 0.3 mm 2 m/S 736 mmHg 48%
    05:00 +13°C° 0.3 mm 2 m/S 736 mmHg 51%
    06:00 +13°C° 0.3 mm 2 m/S 736 mmHg 55%
    07:00 +12°C° 1.8 mm 2 m/S 736 mmHg 61%
    08:00 +10°C° 1.8 mm 2 m/S 736 mmHg 68%
    09:00 +10°C° 0 mm 2 m/S 736 mmHg 75%
    10:00 +10°C° 1.8 mm 3 m/S 736 mmHg 75%
    11:00 +10°C° 1.8 mm 4 m/S 735 mmHg 74%
    12:00 +9°C° 1.8 mm 5 m/S 735 mmHg 74%
    13:00 +9°C° 1.3 mm 5 m/S 735 mmHg 76%
    14:00 +9°C° 1.3 mm 5 m/S 734 mmHg 78%
    15:00 +10°C° 0 mm 4 m/S 734 mmHg 83%
    16:00 +10°C° 0.5 mm 4 m/S 734 mmHg 82%
    17:00 +10°C° 0.5 mm 4 m/S 734 mmHg 80%
    18:00 +10°C° 0.5 mm 4 m/S 734 mmHg 79%
    19:00 +10°C° 0.3 mm 3 m/S 734 mmHg 80%
    20:00 +10°C° 0.3 mm 3 m/S 734 mmHg 80%
    21:00 +11°C° 0.3 mm 3 m/S 734 mmHg 80%
    22:00 +12°C° 0.4 mm 2 m/S 734 mmHg 81%
    23:00 +12°C° 0.4 mm 2 m/S 734 mmHg 82%

    Morgen, 18 Dezember, Dienstag

    Zeit Temperatur Niederschläge Wind Luftdruck Luftfeuchtigkeit
    00:00 +12°C° 0.4 mm 2 m/S 734 mmHg 83%
    01:00 +12°C° 0.3 mm 1 m/S 734 mmHg 84%
    02:00 +12°C° 0.3 mm 1 m/S 734 mmHg 85%
    03:00 +12°C° 0.3 mm 1 m/S 734 mmHg 85%
    04:00 +12°C° 0.1 mm 1 m/S 734 mmHg 85%
    05:00 +12°C° 0.1 mm 1 m/S 735 mmHg 85%
    06:00 +12°C° 0.1 mm 1 m/S 735 mmHg 86%
    07:00 +12°C° 0 mm 1 m/S 735 mmHg 84%
    08:00 +13°C° 0 mm 1 m/S 736 mmHg 82%
    09:00 +13°C° 0 mm 1 m/S 736 mmHg 80%
    10:00 +13°C° 0 mm 2 m/S 736 mmHg 77%
    11:00 +14°C° 0 mm 2 m/S 736 mmHg 74%
    12:00 +14°C° 0 mm 3 m/S 736 mmHg 70%
    13:00 +14°C° 0 mm 3 m/S 736 mmHg 71%
    14:00 +14°C° 0 mm 3 m/S 736 mmHg 71%
    15:00 +15°C° 0 mm 2 m/S 736 mmHg 72%
    16:00 +15°C° 0 mm 2 m/S 736 mmHg 75%
    17:00 +14°C° 0 mm 2 m/S 737 mmHg 77%
    18:00 +14°C° 0 mm 2 m/S 737 mmHg 80%
    19:00 +13°C° 0 mm 2 m/S 737 mmHg 81%
    20:00 +13°C° 0 mm 2 m/S 737 mmHg 82%
    21:00 +13°C° 0 mm 2 m/S 738 mmHg 83%
    22:00 +13°C° 0 mm 2 m/S 738 mmHg 83%
    23:00 +12°C° 0 mm 2 m/S 738 mmHg 83%

    übermorgen, 19 Dezember, Mittwoch

    Zeit Temperatur Niederschläge Wind Luftdruck Luftfeuchtigkeit
    00:00 +12°C° 0 mm 2 m/S 738 mmHg 83%
    01:00 +12°C° 0 mm 2 m/S 738 mmHg 83%
    02:00 +12°C° 0 mm 2 m/S 738 mmHg 83%
    03:00 +12°C° 0 mm 2 m/S 738 mmHg 82%
    04:00 +10°C° 0 mm 2 m/S 737 mmHg 82%
    05:00 +10°C° 0 mm 2 m/S 737 mmHg 82%
    06:00 +10°C° 0 mm 2 m/S 737 mmHg 82%
    07:00 +12°C° 0 mm 2 m/S 737 mmHg 78%
    08:00 +13°C° 0 mm 2 m/S 737 mmHg 74%
    09:00 +13°C° 0 mm 1 m/S 737 mmHg 70%
    10:00 +15°C° 0 mm 1 m/S 737 mmHg 65%
    11:00 +16°C° 0 mm 1 m/S 737 mmHg 59%
    12:00 +18°C° 0 mm 1 m/S 736 mmHg 54%
    13:00 +17°C° 0 mm 2 m/S 736 mmHg 51%
    14:00 +18°C° 0 mm 2 m/S 735 mmHg 49%
    15:00 +18°C° 0 mm 2 m/S 735 mmHg 46%
    16:00 +17°C° 0 mm 2 m/S 735 mmHg 50%
    17:00 +16°C° 0 mm 2 m/S 735 mmHg 54%
    18:00 +15°C° 0 mm 1 m/S 735 mmHg 59%
    19:00 +15°C° 0 mm 2 m/S 735 mmHg 58%
    20:00 +14°C° 0 mm 2 m/S 735 mmHg 58%
    21:00 +14°C° 0 mm 2 m/S 735 mmHg 57%
    22:00 +14°C° 0 mm 2 m/S 734 mmHg 58%
    23:00 +14°C° 0 mm 2 m/S 734 mmHg 59%

    20 Dezember, Donnerstag

    Zeit Temperatur Niederschläge Wind Luftdruck Luftfeuchtigkeit
    00:00 +14°C° 0 mm 2 m/S 734 mmHg 59%
    01:00 +14°C° 0.1 mm 2 m/S 734 mmHg 60%
    02:00 +13°C° 0.1 mm 3 m/S 734 mmHg 61%
    03:00 +13°C° 0.1 mm 3 m/S 734 mmHg 62%
    04:00 +13°C° 0.3 mm 3 m/S 734 mmHg 65%
    05:00 +12°C° 0.3 mm 3 m/S 733 mmHg 68%
    06:00 +12°C° 0.3 mm 3 m/S 733 mmHg 70%
    07:00 +12°C° 0.6 mm 3 m/S 733 mmHg 72%
    08:00 +12°C° 0.6 mm 4 m/S 733 mmHg 73%
    09:00 +12°C° 0.6 mm 4 m/S 733 mmHg 74%
    10:00 +13°C° 0.9 mm 4 m/S 733 mmHg 70%
    11:00 +14°C° 0.9 mm 5 m/S 733 mmHg 66%
    12:00 +14°C° 0.9 mm 5 m/S 733 mmHg 62%
    13:00 +14°C° 1 mm 5 m/S 732 mmHg 64%
    14:00 +14°C° 1 mm 5 m/S 732 mmHg 66%
    15:00 +15°C° 1 mm 4 m/S 732 mmHg 68%
    16:00 +14°C° 1.2 mm 3 m/S 732 mmHg 72%
    17:00 +13°C° 1.2 mm 3 m/S 732 mmHg 75%
    18:00 +14°C° 1.2 mm 2 m/S 732 mmHg 79%
    19:00 +13°C° 0.4 mm 2 m/S 733 mmHg 80%
    20:00 +13°C° 0.4 mm 2 m/S 733 mmHg 81%
    21:00 +13°C° 0.4 mm 1 m/S 733 mmHg 82%
    22:00 +12°C° 0.1 mm 1 m/S 733 mmHg 83%
    23:00 +12°C° 0.1 mm 1 m/S 733 mmHg 83%

    21 Dezember, Freitag

    Zeit Temperatur Niederschläge Wind Luftdruck Luftfeuchtigkeit
    00:00 +12°C° 0.1 mm 1 m/S 733 mmHg 83%
    01:00 +12°C° 0.1 mm 1 m/S 733 mmHg 84%
    02:00 +11°C° 0.1 mm 1 m/S 734 mmHg 84%
    03:00 +11°C° 0.1 mm 1 m/S 734 mmHg 84%
    04:00 +11°C° 0.1 mm 1 m/S 734 mmHg 84%
    05:00 +11°C° 0.1 mm 1 m/S 734 mmHg 85%
    06:00 +11°C° 0.1 mm 1 m/S 734 mmHg 85%
    07:00 +11°C° 0.1 mm 1 m/S 734 mmHg 82%
    08:00 +12°C° 0.1 mm 1 m/S 735 mmHg 78%
    09:00 +13°C° 0.1 mm 1 m/S 735 mmHg 75%
    10:00 +13°C° 0.1 mm 1 m/S 735 mmHg 71%
    11:00 +14°C° 0.1 mm 1 m/S 735 mmHg 67%
    12:00 +15°C° 0.1 mm 1 m/S 735 mmHg 64%
    13:00 +15°C° 0.1 mm 1 m/S 734 mmHg 62%
    14:00 +15°C° 0.1 mm 2 m/S 734 mmHg 61%
    15:00 +16°C° 0.1 mm 2 m/S 734 mmHg 60%
    16:00 +15°C° 0.1 mm 2 m/S 734 mmHg 64%
    17:00 +14°C° 0.1 mm 2 m/S 734 mmHg 68%
    18:00 +14°C° 0.1 mm 1 m/S 734 mmHg 72%
    19:00 +13°C° 0 mm 1 m/S 734 mmHg 73%
    20:00 +13°C° 0 mm 1 m/S 735 mmHg 74%
    21:00 +13°C° 0 mm 2 m/S 735 mmHg 75%
    22:00 +12°C° 0 mm 1 m/S 735 mmHg 75%
    23:00 +12°C° 0 mm 1 m/S 735 mmHg 75%

    22 Dezember, Samstag

    Zeit Temperatur Niederschläge Wind Luftdruck Luftfeuchtigkeit
    00:00 +12°C° 0 mm 1 m/S 735 mmHg 75%
    01:00 +11°C° 0 mm 1 m/S 734 mmHg 75%
    02:00 +11°C° 0 mm 1 m/S 734 mmHg 75%
    03:00 +11°C° 0 mm 1 m/S 734 mmHg 75%
    04:00 +11°C° 0 mm 1 m/S 734 mmHg 75%
    05:00 +10°C° 0 mm 1 m/S 734 mmHg 75%
    06:00 +10°C° 0 mm 1 m/S 734 mmHg 75%
    07:00 +11°C° 0 mm 1 m/S 734 mmHg 71%
    08:00 +12°C° 0 mm 1 m/S 734 mmHg 67%
    09:00 +12°C° 0 mm 1 m/S 735 mmHg 63%
    10:00 +13°C° 0 mm 1 m/S 734 mmHg 60%
    11:00 +14°C° 0 mm 1 m/S 734 mmHg 57%
    12:00 +15°C° 0 mm 1 m/S 734 mmHg 54%
    13:00 +15°C° 0 mm 2 m/S 733 mmHg 54%
    14:00 +15°C° 0 mm 2 m/S 733 mmHg 54%
    15:00 +15°C° 0 mm 2 m/S 733 mmHg 54%
    16:00 +15°C° 0.1 mm 2 m/S 733 mmHg 59%
    17:00 +14°C° 0.1 mm 2 m/S 733 mmHg 63%
    18:00 +13°C° 0.1 mm 2 m/S 733 mmHg 68%
    19:00 +13°C° 0.2 mm 2 m/S 734 mmHg 70%
    20:00 +12°C° 0.2 mm 2 m/S 734 mmHg 73%
    21:00 +12°C° 0.2 mm 1 m/S 734 mmHg 75%
    22:00 +12°C° 0 mm 1 m/S 734 mmHg 76%
    23:00 +11°C° 0 mm 1 m/S 734 mmHg 78%
    Mehr zeigen